This demonstration page uses our WeatherBlox Daily Observations layout. Learn more.

Left ArrowRight Arrow

41.86663, -103.66717

Hourly Observations for March 12, 2021

Temp ( °F °C ) Dew Point ( °F °C ) Humidity (%) Winds ( mph kmh ) Pressure ( in mb ) Visibility ( mi km ) Precip ( " mm )
12:53 am 00:53 Cloudy 36 2.2 24 -4.4 62 62 SE 7 11 30.28 1025 10 16.0934 0 0
1:13 am 01:13 Cloudy with Light Snow 34 1.1 28 -2.2 79 79 SE 9 15 30.33 1027 1.75 2.816345 0.001 0.001
1:27 am 01:27 Cloudy with Light Snow 33 0.6 30 -1.1 89 89 ESE 6 9 30.34 1028 2.5 4.02335 0.001 0.001
1:34 am 01:34 Cloudy with Light Snow 33 0.6 29 -1.7 85 85 E 6 9 30.34 1028 7 11.26538 0.01 0.254
1:53 am 01:53 Cloudy 33 0.6 29 -1.7 85 85 E 7 11 30.27 1025 10 16.0934 0.01 0.254
2:53 am 02:53 Cloudy 32 0 29 -1.7 88 88 ESE 6 9 30.28 1025 10 16.0934 0 0
3:03 am 03:03 Cloudy with Light Snow 33 0.6 29 -1.7 85 85 E 6 9 30.33 1027 1.75 2.816345 0.001 0.001
3:12 am 03:12 Cloudy with Light Snow 34 1 28 -2 81 81 E 6 9 30.33 1027 1.25 2.011675 0 0
3:23 am 03:23 Mostly Cloudy with Light Snow 33 0.6 30 -1.1 89 89 E 7 11 30.33 1027 0.75 1.207005 0.01 0.254
3:30 am 03:30 Cloudy with Light Snow 33 0.6 30 -1.1 89 89 E 8 13 30.33 1027 1.25 2.011675 0.02 0.508
3:36 am 03:36 Cloudy with Light Snow 34 1 28 -2 81 81 E 8 13 30.33 1027 3 4.82802 0 0
3:49 am 03:49 Cloudy 34 1 28 -2 81 81 E 7 11 30.33 1027 10 16.0934 0.02 0.508
3:53 am 03:53 Cloudy 33 0.6 29 -1.7 85 85 E 7 11 30.26 1025 10 16.0934 0.02 0.508
4:53 am 04:53 Cloudy 33 0.6 27 -2.8 78 78 E 9 15 30.27 1025 10 16.0934 0 0
5:53 am 05:53 Cloudy 33 0.6 29 -1.7 85 85 SE 7 11 30.29 1026 10 16.0934 0 0
6:53 am 06:53 Cloudy 34 1.1 29 -1.7 82 82 ESE 7 11 30.31 1027 10 16.0934 0 0
7:53 am 07:53 Cloudy 34 1.1 27 -2.8 76 76 ESE 14 22 30.34 1028 10 16.0934 0 0
8:53 am 08:53 Cloudy 35 1.7 27 -2.8 72 72 E 10 17 30.35 1028 10 16.0934 0 0
9:53 am 09:53 Cloudy 37 2.8 28 -2.2 70 70 E 10 17 30.33 1027 10 16.0934 0 0
10:53 am 10:53 Cloudy 41 5 30 -1.1 65 65 ESE 10 17 30.32 1027 10 16.0934 0 0
11:53 am 11:53 Cloudy 47 8.3 28 -2.2 48 48 SSE 14 22 30.28 1026 10 16.0934 0 0
12:53 pm 12:53 Cloudy 47 8.3 26 -3.3 44 44 SE 13 20 30.25 1024 10 16.0934 0 0
1:53 pm 13:53 Mostly Cloudy 50 10 25 -3.9 38 38 SE 14 22 30.22 1023 10 16.0934 0 0
2:53 pm 14:53 Mostly Cloudy 50 10 26 -3.3 39 39 SE 18 30 30.21 1023 10 16.0934 0 0
3:53 pm 15:53 Cloudy 49 9.4 26 -3.3 41 41 SSE 16 26 30.21 1023 10 16.0934 0 0
4:53 pm 16:53 Cloudy 48 8.9 26 -3.3 42 42 SE 13 20 30.22 1023 10 16.0934 0 0
5:53 pm 17:53 Cloudy 47 8.3 26 -3.3 44 44 SE 8 13 30.23 1024 10 16.0934 0 0
6:53 pm 18:53 Cloudy 45 7.2 26 -3.3 48 48 ESE 10 17 30.25 1025 10 16.0934 0 0
7:53 pm 19:53 Cloudy 42 5.6 28 -2.2 58 58 E 8 13 30.27 1025 10 16.0934 0 0
8:53 pm 20:53 Cloudy 42 5.6 28 -2.2 58 58 ESE 8 13 30.29 1026 10 16.0934 0 0
9:53 pm 21:53 Cloudy 42 5.6 28 -2.2 58 58 E 8 13 30.28 1026 10 16.0934 0 0
10:53 pm 22:53 Cloudy 41 5 30 -1.1 65 65 SSE 7 11 30.27 1025 10 16.0934 0 0
11:29 pm 23:29 Cloudy 41 5 29 -1.7 62 62 SE 7 11 30.27 1025 10 16.0934 0 0
11:53 pm 23:53 Cloudy 40 4.4 30 -1.1 68 68 SSE 9 15 30.24 1024 10 16.0934 0 0

Powered by AerisWeather